QPF
0.00 0.00 0.00 0.00 0.00 0.00 0.00 0.00 0.00 0.00 0.00 0.00 0.00 0.00 0.00 0.00 0.00 0.00 0.00 0.00 0.00 0.00 0.00 0.00 0.00 0.00 0.00 0.00 0.00 0.00 0.00 0.00 0.00 0.00 0.00 0.00 0.00 0.00 0.00 0.00 0.00 0.00 0.00
0.00 0.00 0.01 0.00 0.00 0.00 0.00 0.00 0.00 0.00 0.00 0.00 0.00 0.00 0.00 0.00 0.00 0.00 0.00 0.00 0.00 0.00 0.00 0.00 0.00 0.00 0.00 0.00 0.00 0.00 0.00 0.00 0.00 0.00 0.00 0.00 0.00 0.00 0.00 0.00 0.00 0.00 0.00
0.00 0.00 0.00 0.00 0.00 0.00 0.00 0.00 0.00 0.00 0.00 0.00 0.00 0.00 0.00 0.00 0.00 0.00 0.00 0.00 0.00 0.00 0.00 0.00 0.00 0.00 0.00 0.00 0.00 0.00 0.00 0.00 0.00 0.00 0.00 0.00 0.00 0.00 0.00 0.00 0.00 0.00 0.00
0.00 0.00 0.00 0.00 0.00 0.00 0.00 0.00 0.00 0.00 0.00 0.00 0.00 0.00 0.00 0.00 0.00 0.00 0.00 0.00 0.00 0.00 0.00 0.00 0.00 0.00 0.00 0.00 0.00 0.00 0.00 0.00 0.00 0.00 0.00 0.00 0.00 0.00 0.00 0.00 0.00 0.00 0.00
0.00 0.00 0.00 0.00 0.00 0.00 0.00 0.00 0.00 0.00 0.00 0.00 0.00 0.00 0.00 0.00 0.00 0.00 0.00 0.00 0.00 0.00 0.00 0.00 0.00 0.00 0.00 0.00 0.00 0.00 0.00 0.00 0.00 0.00 0.00 0.00 0.00 0.00 0.00 0.00 0.00 0.00 0.00
0.00 0.00 0.01 0.01 0.01 0.01 0.01 0.00 0.00 0.00 0.00 0.00 0.00 0.00 0.00 0.00 0.00 0.00 0.00 0.00 0.00 0.00 0.00 0.00 0.00 0.00 0.00 0.00 0.00 0.00 0.00 0.00 0.00 0.00 0.00 0.00 0.00 0.00 0.00 0.00 0.00 0.00 0.00
0.01 0.01 0.01 0.01 0.01 0.01 0.01 0.01 0.01 0.00 0.00 0.00 0.00 0.00 0.00 0.00 0.00 0.00 0.00 0.00 0.00 0.00 0.00 0.00 0.00 0.00 0.00 0.00 0.00 0.00 0.00 0.00 0.00 0.00 0.00 0.00 0.00 0.00 0.00 0.00 0.00 0.00 0.00
0.01 0.01 0.02 0.02 0.02 0.01 0.01 0.01 0.01 0.01 0.01 0.00 0.00 0.00 0.00 0.00 0.01 0.00 0.01 0.00 0.00 0.00 0.00 0.00 0.00 0.00 0.00 0.00 0.00 0.00 0.00 0.00 0.00 0.00 0.00 0.00 0.00 0.00 0.01 0.01 0.01 0.01 0.01
0.02 0.02 0.03 0.03 0.02 0.02 0.02 0.02 0.03 0.02 0.02 0.02 0.01 0.01 0.01 0.01 0.01 0.02 0.01 0.01 0.00 0.00 0.00 0.00 0.00 0.00 0.00 0.00 0.00 0.00 0.00 0.00 0.00 0.00 0.00 0.00 0.00 0.00 0.00 0.01 0.01 0.01 0.00
0.03 0.03 0.03 0.03 0.03 0.03 0.03 0.03 0.03 0.03 0.03 0.03 0.02 0.02 0.01 0.01 0.01 0.02 0.02 0.01 0.01 0.01 0.01 0.01 0.01 0.01 0.01 0.01 0.01 0.00 0.01 0.01 0.01 0.01 0.00 0.00 0.00 0.00 0.00 0.00 0.01 0.01 0.01
0.02 0.02 0.02 0.03 0.03 0.03 0.03 0.03 0.04 0.04 0.03 0.03 0.02 0.02 0.02 0.02 0.02 0.03 0.03 0.02 0.01 0.01 0.01 0.01 0.01 0.02 0.01 0.01 0.01 0.01 0.01 0.01 0.02 0.02 0.02 0.01 0.01 0.00 0.00 0.00 0.00 0.01 0.01
0.01 0.01 0.01 0.01 0.01 0.02 0.02 0.02 0.02 0.02 0.02 0.02 0.01 0.01 0.01 0.02 0.02 0.02 0.03 0.02 0.02 0.01 0.01 0.01 0.01 0.01 0.01 0.01 0.01 0.01 0.01 0.01 0.01 0.02 0.02 0.01 0.01 0.01 0.01 0.01 0.01 0.01 0.01
0.00 0.00 0.00 0.00 0.01 0.01 0.01 0.01 0.01 0.01 0.01 0.01 0.01 0.01 0.01 0.01 0.01 0.02 0.02 0.02 0.02 0.02 0.01 0.02 0.02 0.02 0.02 0.02 0.01 0.01 0.01 0.01 0.01 0.02 0.02 0.01 0.01 0.01 0.01 0.02 0.02 0.02 0.02
0.00 0.00 0.00 0.00 0.00 0.00 0.00 0.00 0.00 0.00 0.00 0.00 0.00 0.00 0.00 0.01 0.01 0.01 0.02 0.02 0.03 0.03 0.02 0.02 0.02 0.02 0.02 0.02 0.02 0.02 0.02 0.02 0.02 0.02 0.02 0.02 0.02 0.03 0.02 0.02 0.02 0.02 0.02
0.00 0.00 0.00 0.00 0.00 0.00 0.00 0.00 0.00 0.00 0.00 0.00 0.00 0.00 0.00 0.00 0.01 0.01 0.01 0.01 0.01 0.01 0.02 0.02 0.02 0.02 0.02 0.02 0.03 0.03 0.04 0.04 0.04 0.04 0.04 0.04 0.04 0.04 0.03 0.03 0.03 0.02 0.02
0.00 0.00 0.00 0.00 0.00 0.00 0.00 0.00 0.00 0.00 0.00 0.00 0.01 0.01 0.01 0.01 0.01 0.01 0.01 0.01 0.01 0.01 0.02 0.02 0.02 0.02 0.03 0.04 0.05 0.06 0.06 0.07 0.07 0.07 0.07 0.06 0.06 0.06 0.06 0.05 0.04 0.03 0.02
0.00 0.00 0.00 0.00 0.00 0.00 0.00 0.00 0.00 0.00 0.00 0.00 0.00 0.00 0.00 0.00 0.00 0.00 0.00 0.01 0.01 0.01 0.01 0.02 0.02 0.03 0.04 0.05 0.07 0.08 0.09 0.09 0.10 0.10 0.09 0.08 0.07 0.07 0.07 0.06 0.05 0.04 0.03
0.00 0.00 0.00 0.00 0.00 0.00 0.00 0.00 0.00 0.00 0.00 0.00 0.00 0.00 0.00 0.00 0.00 0.00 0.00 0.00 0.01 0.02 0.02 0.03 0.04 0.04 0.05 0.07 0.08 0.09 0.10 0.11 0.11 0.11 0.10 0.09 0.09 0.08 0.07 0.06 0.06 0.05 0.04
0.00 0.00 0.00 0.00 0.00 0.00 0.00 0.00 0.00 0.00 0.00 0.00 0.00 0.00 0.00 0.00 0.00 0.00 0.00 0.01 0.02 0.02 0.03 0.05 0.06 0.07 0.09 0.09 0.09 0.10 0.10 0.11 0.13 0.13 0.12 0.10 0.08 0.07 0.07 0.07 0.06 0.06 0.05
0.00 0.00 0.00 0.00 0.00 0.00 0.00 0.00 0.00 0.00 0.00 0.00 0.00 0.01 0.01 0.00 0.01 0.01 0.02 0.02 0.03 0.04 0.05 0.06 0.09 0.11 0.13 0.16 0.16 0.14 0.12 0.11 0.12 0.13 0.13 0.12 0.11 0.10 0.08 0.07 0.07 0.08 0.07
0.00 0.00 0.00 0.00 0.00 0.00 0.00 0.00 0.00 0.00 0.01 0.01 0.01 0.01 0.01 0.01 0.02 0.02 0.03 0.04 0.05 0.07 0.07 0.08 0.09 0.11 0.13 0.14 0.15 0.16 0.17 0.17 0.16 0.16 0.15 0.13 0.13 0.11 0.09 0.08 0.08 0.09 0.09
0.00 0.00 0.00 0.00 0.00 0.00 0.00 0.00 0.00 0.01 0.01 0.01 0.01 0.01 0.01 0.02 0.03 0.04 0.06 0.08 0.11 0.12 0.12 0.13 0.13 0.15 0.17 0.17 0.18 0.19 0.20 0.19 0.19 0.19 0.18 0.16 0.14 0.12 0.11 0.09 0.09 0.09 0.08
0.00 0.00 0.00 0.00 0.00 0.00 0.00 0.00 0.01 0.01 0.01 0.01 0.01 0.02 0.02 0.03 0.04 0.06 0.09 0.12 0.14 0.14 0.14 0.15 0.15 0.16 0.16 0.16 0.16 0.18 0.19 0.20 0.21 0.20 0.19 0.17 0.14 0.12 0.10 0.09 0.09 0.08 0.08
0.00 0.00 0.00 0.00 0.00 0.00 0.00 0.00 0.01 0.01 0.01 0.01 0.02 0.03 0.04 0.04 0.05 0.06 0.08 0.11 0.12 0.13 0.16 0.17 0.19 0.18 0.18 0.17 0.17 0.17 0.17 0.17 0.16 0.16 0.16 0.15 0.14 0.12 0.10 0.09 0.08 0.09 0.09
0.00 0.00 0.00 0.00 0.00 0.00 0.01 0.01 0.01 0.01 0.01 0.02 0.02 0.03 0.04 0.05 0.05 0.06 0.07 0.08 0.09 0.10 0.11 0.12 0.11 0.10 0.09 0.09 0.10 0.11 0.13 0.14 0.12 0.10 0.09 0.09 0.09 0.09 0.09 0.07 0.07 0.08 0.08
0.00 0.00 0.00 0.01 0.01 0.01 0.01 0.01 0.01 0.01 0.02 0.02 0.03 0.04 0.04 0.04 0.04 0.05 0.06 0.07 0.07 0.07 0.07 0.08 0.06 0.05 0.05 0.05 0.05 0.05 0.05 0.05 0.05 0.05 0.04 0.03 0.04 0.04 0.05 0.05 0.06 0.07 0.07
MSLP
1014.41 1014.72 1015.01 1015.28 1015.54 1015.78 1016.01 1016.23 1016.46 1016.71 1016.97 1017.26 1017.56 1017.85 1018.14 1018.41 1018.65 1018.85 1019.02 1019.15 1019.26 1019.34 1019.41 1019.47 1019.51 1019.54 1019.55 1019.53 1019.48 1019.40 1019.30 1019.17 1019.02 1018.86 1018.69 1018.52 1018.35 1018.19 1018.04 1017.92 1017.81 1017.73 1017.69
1013.66 1013.95 1014.22 1014.48 1014.74 1014.99 1015.24 1015.50 1015.77 1016.05 1016.35 1016.66 1016.97 1017.28 1017.57 1017.84 1018.08 1018.29 1018.47 1018.62 1018.74 1018.85 1018.94 1019.01 1019.07 1019.11 1019.13 1019.14 1019.11 1019.06 1018.99 1018.90 1018.78 1018.64 1018.49 1018.32 1018.14 1017.96 1017.77 1017.59 1017.42 1017.29 1017.20
1012.98 1013.23 1013.47 1013.71 1013.95 1014.20 1014.46 1014.74 1015.04 1015.36 1015.69 1016.02 1016.35 1016.66 1016.95 1017.21 1017.44 1017.65 1017.83 1017.99 1018.12 1018.24 1018.35 1018.44 1018.51 1018.57 1018.61 1018.64 1018.64 1018.63 1018.59 1018.54 1018.46 1018.36 1018.24 1018.08 1017.90 1017.69 1017.47 1017.24 1017.02 1016.83 1016.68
1012.46 1012.66 1012.85 1013.05 1013.25 1013.49 1013.75 1014.04 1014.35 1014.69 1015.03 1015.37 1015.70 1016.00 1016.28 1016.53 1016.75 1016.95 1017.12 1017.28 1017.42 1017.55 1017.66 1017.76 1017.85 1017.93 1017.99 1018.04 1018.08 1018.10 1018.11 1018.10 1018.07 1018.01 1017.91 1017.78 1017.61 1017.40 1017.15 1016.89 1016.63 1016.38 1016.17
1012.19 1012.32 1012.45 1012.59 1012.75 1012.95 1013.18 1013.46 1013.76 1014.09 1014.42 1014.76 1015.07 1015.36 1015.62 1015.85 1016.05 1016.23 1016.39 1016.53 1016.67 1016.80 1016.91 1017.03 1017.13 1017.22 1017.30 1017.37 1017.43 1017.49 1017.54 1017.58 1017.59 1017.58 1017.52 1017.42 1017.27 1017.07 1016.82 1016.54 1016.25 1015.96 1015.70
1012.20 1012.27 1012.33 1012.40 1012.51 1012.65 1012.83 1013.06 1013.33 1013.62 1013.93 1014.23 1014.51 1014.77 1015.00 1015.20 1015.37 1015.53 1015.67 1015.80 1015.92 1016.04 1016.16 1016.27 1016.38 1016.47 1016.57 1016.66 1016.74 1016.83 1016.91 1016.98 1017.04 1017.06 1017.05 1016.98 1016.85 1016.67 1016.44 1016.16 1015.86 1015.55 1015.26
1012.51 1012.51 1012.51 1012.52 1012.55 1012.62 1012.74 1012.90 1013.11 1013.34 1013.59 1013.83 1014.07 1014.28 1014.47 1014.63 1014.78 1014.90 1015.02 1015.13 1015.24 1015.35 1015.45 1015.56 1015.66 1015.75 1015.85 1015.94 1016.04 1016.14 1016.24 1016.33 1016.41 1016.46 1016.47 1016.43 1016.34 1016.18 1015.97 1015.71 1015.42 1015.12 1014.82
1013.07 1013.03 1012.97 1012.91 1012.87 1012.86 1012.90 1012.97 1013.09 1013.24 1013.42 1013.59 1013.77 1013.93 1014.08 1014.20 1014.31 1014.41 1014.50 1014.59 1014.68 1014.77 1014.85 1014.94 1015.02 1015.10 1015.17 1015.26 1015.34 1015.44 1015.53 1015.63 1015.71 1015.76 1015.78 1015.76 1015.68 1015.54 1015.36 1015.13 1014.87 1014.60 1014.32
1013.78 1013.71 1013.61 1013.50 1013.39 1013.30 1013.24 1013.23 1013.25 1013.31 1013.40 1013.51 1013.62 1013.73 1013.83 1013.92 1014.00 1014.08 1014.15 1014.21 1014.27 1014.33 1014.39 1014.43 1014.48 1014.52 1014.56 1014.61 1014.66 1014.73 1014.79 1014.86 1014.91 1014.95 1014.96 1014.92 1014.85 1014.73 1014.57 1014.38 1014.17 1013.94 1013.72
1014.54 1014.45 1014.32 1014.15 1013.98 1013.82 1013.68 1013.57 1013.51 1013.48 1013.49 1013.53 1013.58 1013.65 1013.72 1013.78 1013.85 1013.90 1013.95 1013.99 1014.02 1014.04 1014.05 1014.04 1014.03 1014.01 1013.99 1013.98 1013.97 1013.97 1013.99 1014.00 1014.01 1014.01 1013.98 1013.93 1013.85 1013.73 1013.60 1013.44 1013.28 1013.11 1012.96
1015.21 1015.11 1014.95 1014.75 1014.52 1014.29 1014.08 1013.90 1013.76 1013.66 1013.61 1013.60 1013.61 1013.65 1013.70 1013.76 1013.82 1013.86 1013.89 1013.90 1013.89 1013.85 1013.79 1013.71 1013.61 1013.50 1013.39 1013.29 1013.21 1013.13 1013.07 1013.02 1012.97 1012.92 1012.85 1012.77 1012.67 1012.56 1012.44 1012.31 1012.20 1012.10 1012.02
1015.72 1015.59 1015.41 1015.17 1014.90 1014.62 1014.36 1014.12 1013.93 1013.79 1013.70 1013.65 1013.65 1013.69 1013.74 1013.80 1013.85 1013.89 1013.90 1013.87 1013.80 1013.69 1013.54 1013.35 1013.14 1012.92 1012.70 1012.49 1012.30 1012.14 1012.00 1011.88 1011.77 1011.67 1011.56 1011.46 1011.35 1011.24 1011.13 1011.04 1010.97 1010.93 1010.92
1016.01 1015.85 1015.62 1015.35 1015.05 1014.73 1014.44 1014.17 1013.95 1013.79 1013.69 1013.64 1013.65 1013.69 1013.76 1013.83 1013.88 1013.91 1013.89 1013.81 1013.67 1013.47 1013.20 1012.89 1012.55 1012.19 1011.84 1011.50 1011.20 1010.94 1010.72 1010.54 1010.39 1010.26 1010.14 1010.02 1009.92 1009.82 1009.74 1009.68 1009.65 1009.67 1009.72
1016.07 1015.86 1015.60 1015.29 1014.96 1014.63 1014.31 1014.04 1013.82 1013.66 1013.56 1013.53 1013.56 1013.62 1013.71 1013.79 1013.84 1013.85 1013.79 1013.65 1013.42 1013.11 1012.72 1012.26 1011.77 1011.26 1010.77 1010.30 1009.89 1009.54 1009.26 1009.03 1008.86 1008.72 1008.61 1008.52 1008.44 1008.37 1008.33 1008.31 1008.32 1008.38 1008.47
1015.96 1015.69 1015.38 1015.04 1014.69 1014.35 1014.03 1013.76 1013.55 1013.41 1013.34 1013.34 1013.38 1013.47 1013.56 1013.65 1013.69 1013.67 1013.55 1013.34 1013.01 1012.57 1012.04 1011.44 1010.79 1010.13 1009.50 1008.91 1008.40 1007.98 1007.65 1007.40 1007.23 1007.12 1007.05 1007.01 1006.98 1006.97 1006.98 1007.00 1007.05 1007.14 1007.26
1015.76 1015.43 1015.08 1014.71 1014.34 1014.00 1013.69 1013.44 1013.25 1013.13 1013.07 1013.08 1013.14 1013.23 1013.32 1013.39 1013.40 1013.33 1013.16 1012.86 1012.43 1011.87 1011.21 1010.46 1009.68 1008.88 1008.12 1007.43 1006.84 1006.37 1006.01 1005.77 1005.62 1005.56 1005.55 1005.58 1005.63 1005.69 1005.75 1005.82 1005.91 1006.02 1006.15
1015.56 1015.19 1014.80 1014.41 1014.04 1013.70 1013.41 1013.17 1012.99 1012.88 1012.83 1012.83 1012.88 1012.95 1013.01 1013.04 1013.00 1012.87 1012.63 1012.24 1011.71 1011.06 1010.28 1009.43 1008.53 1007.63 1006.77 1006.01 1005.36 1004.85 1004.49 1004.26 1004.16 1004.15 1004.21 1004.31 1004.44 1004.57 1004.69 1004.80 1004.91 1005.03 1005.16
1015.46 1015.05 1014.64 1014.25 1013.88 1013.55 1013.27 1013.04 1012.86 1012.74 1012.67 1012.64 1012.65 1012.67 1012.67 1012.63 1012.53 1012.33 1012.01 1011.55 1010.95 1010.22 1009.37 1008.44 1007.47 1006.51 1005.60 1004.79 1004.11 1003.59 1003.22 1003.02 1002.94 1002.98 1003.10 1003.27 1003.45 1003.63 1003.80 1003.94 1004.07 1004.19 1004.31
1015.51 1015.09 1014.69 1014.30 1013.94 1013.62 1013.34 1013.10 1012.91 1012.75 1012.63 1012.54 1012.48 1012.41 1012.33 1012.21 1012.02 1011.75 1011.36 1010.85 1010.20 1009.43 1008.56 1007.61 1006.62 1005.65 1004.72 1003.91 1003.22 1002.69 1002.33 1002.13 1002.07 1002.13 1002.28 1002.47 1002.68 1002.89 1003.07 1003.22 1003.35 1003.46 1003.56
1015.73 1015.33 1014.94 1014.57 1014.23 1013.91 1013.63 1013.37 1013.13 1012.92 1012.73 1012.55 1012.38 1012.20 1012.02 1011.80 1011.52 1011.18 1010.74 1010.19 1009.54 1008.77 1007.92 1007.00 1006.04 1005.10 1004.21 1003.41 1002.74 1002.22 1001.85 1001.65 1001.58 1001.62 1001.75 1001.93 1002.12 1002.31 1002.48 1002.62 1002.72 1002.81 1002.89
1016.11 1015.74 1015.38 1015.03 1014.71 1014.39 1014.09 1013.79 1013.50 1013.21 1012.93 1012.64 1012.35 1012.05 1011.75 1011.42 1011.05 1010.64 1010.17 1009.61 1008.97 1008.25 1007.46 1006.61 1005.73 1004.86 1004.03 1003.28 1002.64 1002.13 1001.76 1001.52 1001.41 1001.40 1001.47 1001.59 1001.73 1001.87 1001.98 1002.08 1002.15 1002.20 1002.25
1016.61 1016.28 1015.95 1015.62 1015.30 1014.98 1014.65 1014.31 1013.96 1013.58 1013.19 1012.78 1012.37 1011.94 1011.52 1011.08 1010.64 1010.17 1009.67 1009.12 1008.52 1007.86 1007.15 1006.40 1005.63 1004.86 1004.11 1003.43 1002.83 1002.33 1001.94 1001.66 1001.49 1001.40 1001.39 1001.41 1001.46 1001.51 1001.55 1001.58 1001.60 1001.62 1001.64
1017.16 1016.86 1016.56 1016.25 1015.93 1015.59 1015.24 1014.85 1014.42 1013.97 1013.47 1012.96 1012.42 1011.88 1011.34 1010.81 1010.28 1009.76 1009.24 1008.70 1008.14 1007.56 1006.94 1006.30 1005.64 1004.97 1004.32 1003.71 1003.15 1002.66 1002.26 1001.93 1001.69 1001.51 1001.39 1001.31 1001.25 1001.20 1001.16 1001.11 1001.07 1001.05 1001.04
1017.71 1017.43 1017.13 1016.83 1016.50 1016.15 1015.76 1015.33 1014.85 1014.32 1013.74 1013.13 1012.50 1011.86 1011.22 1010.61 1010.01 1009.44 1008.89 1008.36 1007.84 1007.31 1006.77 1006.21 1005.65 1005.08 1004.52 1003.97 1003.45 1002.98 1002.55 1002.19 1001.87 1001.61 1001.39 1001.21 1001.05 1000.91 1000.78 1000.67 1000.57 1000.50 1000.46
1018.18 1017.91 1017.62 1017.31 1016.97 1016.61 1016.20 1015.73 1015.21 1014.63 1014.00 1013.32 1012.61 1011.90 1011.19 1010.50 1009.84 1009.22 1008.64 1008.10 1007.59 1007.09 1006.59 1006.10 1005.61 1005.11 1004.61 1004.11 1003.62 1003.16 1002.73 1002.33 1001.96 1001.64 1001.34 1001.07 1000.83 1000.61 1000.41 1000.24 1000.10 999.99 999.92
1018.56 1018.28 1017.98 1017.66 1017.32 1016.94 1016.51 1016.04 1015.50 1014.89 1014.23 1013.52 1012.77 1012.01 1011.25 1010.51 1009.80 1009.13 1008.52 1007.94 1007.41 1006.91 1006.43 1005.96 1005.49 1005.02 1004.56 1004.09 1003.62 1003.17 1002.73 1002.31 1001.92 1001.55 1001.20 1000.88 1000.58 1000.31 1000.06 999.84 999.66 999.51 999.40
Thickness
5739 5737 5735 5734 5732 5729 5727 5725 5722 5720 5717 5713 5711 5708 5705 5703 5699 5695 5694 5692 5688 5687 5685 5683 5680 5678 5679 5679 5677 5675 5673 5670 5666 5670 5672 5672 5666 5664 5665 5665 5665 5666 5668
5742 5739 5736 5734 5732 5730 5728 5726 5723 5719 5716 5713 5710 5707 5704 5701 5698 5694 5691 5690 5687 5684 5682 5680 5678 5677 5674 5672 5672 5671 5669 5667 5663 5661 5663 5664 5663 5661 5659 5659 5661 5664 5664
5744 5740 5737 5734 5732 5730 5728 5726 5722 5718 5715 5712 5709 5705 5702 5699 5696 5693 5690 5688 5685 5683 5681 5678 5676 5673 5670 5670 5667 5666 5665 5664 5661 5658 5658 5659 5658 5658 5656 5656 5657 5657 5658
5744 5740 5737 5735 5733 5730 5727 5724 5721 5717 5713 5710 5707 5704 5700 5697 5695 5692 5688 5685 5683 5681 5679 5676 5674 5671 5668 5665 5663 5661 5659 5657 5656 5654 5654 5655 5654 5654 5651 5650 5652 5655 5654
5741 5737 5735 5733 5731 5728 5724 5721 5718 5714 5711 5708 5704 5701 5698 5695 5693 5690 5685 5683 5679 5677 5675 5673 5672 5669 5666 5662 5661 5659 5656 5652 5652 5651 5651 5650 5650 5647 5647 5648 5647 5647 5649
5734 5732 5732 5729 5726 5722 5719 5716 5713 5709 5706 5704 5700 5697 5694 5693 5690 5683 5679 5678 5676 5673 5672 5670 5669 5665 5661 5655 5653 5650 5648 5647 5647 5645 5646 5645 5642 5642 5640 5639 5639 5640 5639
5725 5724 5723 5721 5718 5715 5713 5710 5706 5703 5700 5697 5694 5692 5689 5687 5681 5675 5670 5668 5669 5669 5668 5666 5665 5667 5660 5656 5651 5644 5641 5638 5636 5637 5639 5639 5638 5635 5632 5632 5630 5630 5631
5715 5714 5712 5711 5709 5706 5704 5701 5698 5695 5692 5689 5686 5684 5682 5680 5674 5668 5663 5660 5661 5662 5662 5660 5658 5657 5656 5652 5648 5646 5643 5641 5635 5630 5631 5633 5631 5628 5625 5623 5622 5622 5623
5700 5699 5700 5700 5698 5695 5692 5690 5687 5684 5681 5679 5677 5674 5672 5669 5664 5659 5652 5653 5654 5655 5655 5654 5652 5651 5648 5642 5638 5638 5638 5638 5635 5631 5629 5627 5623 5619 5616 5614 5615 5615 5617
5684 5685 5686 5685 5683 5681 5679 5677 5675 5672 5670 5668 5666 5664 5661 5659 5654 5647 5640 5642 5644 5646 5646 5646 5643 5641 5639 5633 5630 5629 5629 5631 5629 5628 5623 5619 5616 5613 5608 5605 5607 5609 5611
5671 5672 5672 5671 5670 5667 5665 5663 5661 5659 5657 5654 5652 5650 5647 5645 5641 5635 5629 5627 5630 5632 5634 5635 5636 5632 5626 5622 5618 5619 5621 5620 5619 5618 5618 5617 5615 5613 5610 5606 5603 5603 5605
5659 5658 5658 5657 5657 5655 5652 5649 5647 5645 5643 5641 5638 5636 5635 5631 5627 5622 5616 5611 5610 5612 5616 5619 5620 5616 5612 5608 5606 5608 5606 5602 5605 5607 5609 5611 5612 5612 5610 5607 5603 5600 5599
5646 5645 5644 5643 5641 5640 5638 5637 5635 5632 5630 5628 5625 5622 5620 5617 5613 5607 5602 5598 5594 5593 5598 5599 5598 5595 5593 5594 5594 5593 5590 5590 5593 5596 5600 5604 5606 5607 5604 5601 5597 5594 5591
5634 5633 5632 5631 5629 5627 5623 5623 5620 5616 5613 5609 5606 5603 5601 5599 5595 5590 5586 5582 5579 5578 5580 5581 5579 5578 5578 5579 5582 5582 5581 5584 5585 5588 5592 5596 5597 5596 5594 5593 5590 5588 5586
5622 5621 5620 5619 5617 5611 5610 5605 5601 5596 5590 5583 5582 5580 5578 5576 5570 5558 5554 5557 5556 5554 5552 5556 5561 5566 5569 5571 5573 5574 5574 5574 5574 5576 5579 5582 5584 5585 5585 5585 5582 5581 5580
5610 5608 5608 5606 5602 5600 5596 5593 5587 5580 5573 5565 5559 5553 5554 5549 5543 5539 5534 5532 5530 5527 5528 5540 5546 5550 5552 5556 5558 5560 5561 5563 5565 5566 5568 5571 5572 5574 5574 5574 5574 5573 5574
5594 5593 5592 5590 5587 5584 5580 5576 5572 5568 5559 5552 5545 5538 5532 5527 5522 5519 5516 5515 5514 5511 5516 5525 5530 5533 5535 5538 5541 5544 5548 5551 5552 5554 5556 5559 5561 5562 5563 5565 5565 5565 5566
5582 5580 5576 5573 5570 5566 5562 5557 5553 5549 5545 5541 5532 5523 5517 5512 5507 5503 5500 5499 5508 5509 5510 5511 5513 5515 5517 5520 5524 5528 5531 5535 5538 5541 5544 5547 5550 5552 5554 5556 5558 5559 5559
5568 5565 5559 5554 5551 5549 5543 5538 5533 5528 5523 5519 5515 5510 5502 5498 5494 5491 5487 5490 5494 5495 5495 5495 5496 5498 5501 5505 5508 5511 5515 5520 5525 5529 5533 5537 5540 5542 5545 5549 5551 5551 5550
5554 5545 5538 5535 5534 5529 5523 5517 5512 5507 5502 5498 5494 5491 5487 5483 5482 5481 5478 5476 5477 5478 5478 5480 5481 5484 5487 5491 5495 5498 5503 5507 5511 5516 5522 5527 5530 5534 5538 5541 5543 5544 5545
5538 5532 5523 5520 5516 5509 5502 5496 5492 5487 5483 5479 5476 5471 5462 5464 5465 5464 5463 5462 5461 5462 5464 5467 5470 5474 5478 5482 5486 5489 5492 5497 5502 5507 5513 5518 5522 5527 5531 5534 5536 5537 5539
5519 5515 5508 5503 5497 5491 5483 5479 5475 5470 5467 5463 5461 5458 5454 5453 5453 5452 5452 5452 5451 5451 5454 5457 5462 5467 5470 5474 5479 5482 5486 5491 5495 5499 5505 5511 5516 5521 5524 5527 5530 5532 5534
5502 5497 5492 5486 5480 5473 5469 5465 5460 5455 5452 5449 5447 5446 5444 5443 5442 5442 5443 5443 5444 5446 5448 5452 5457 5462 5466 5469 5473 5477 5482 5487 5491 5495 5499 5505 5510 5515 5519 5522 5525 5527 5529
5486 5481 5475 5471 5465 5460 5455 5451 5446 5443 5440 5438 5437 5436 5436 5435 5436 5437 5437 5439 5440 5442 5445 5449 5453 5458 5462 5467 5471 5474 5478 5481 5485 5490 5495 5499 5505 5510 5514 5518 5521 5523 5525
5471 5465 5460 5455 5450 5445 5442 5438 5434 5431 5429 5429 5429 5429 5430 5431 5432 5433 5435 5436 5438 5441 5445 5448 5452 5456 5460 5464 5468 5471 5472 5475 5478 5482 5488 5494 5499 5504 5509 5513 5516 5518 5520
5456 5450 5446 5441 5437 5434 5431 5428 5425 5423 5423 5423 5423 5424 5425 5427 5429 5431 5433 5435 5438 5441 5445 5449 5452 5455 5459 5462 5465 5467 5469 5472 5475 5478 5482 5490 5496 5501 5505 5508 5511 5513 5515